Flag for Norway Weather past 2 weeks in Lillestrøm, Norway

Now
54 °F

Cool.


Feels Like: 54 °F
Forecast: 54 / 63 °F
Wind: 2 mph from Northeast

Location: Oslo-Blindern

Current Time: Jul 28, 2015 at 7:55:43 AM

Latest Report: Jul 28, 2015 at 7:00 AM


Visibility: N/A

Pressure: 29.54 "Hg

Humidity: 93%

Dew point: 53 °F

Location of LillestrømLocation

Historic Weather in Lillestrøm — Graph

°F

Lillestrøm temperature yesterday

Maximum temperature yesterday: 69 °F (at 1:00 PM)
Minimum temperature yesterday: 52 °F (at 3:00 AM)
Average temperature yesterday: 60 °F

Past Weeks' High & Low Weather Summary

 TemperatureHumidityPressure
High74 °F (Jul 14, 4:00 PM)96% (Jul 18, 8:00 AM)30.07 "Hg (Jul 18, 8:00 AM)
Low47 °F (Jul 24, 5:00 AM)37% (Jul 23, 5:00 PM)29.35 "Hg (Jul 26, 1:00 PM)
Average60 °F71%29.70 "Hg
* Reported Jul 13 6:00 AM — Jul 28 6:00 AM, Lillestrøm, Weather by CustomWeather, © 2015

Note: Actual official high and low records may vary slightly from our data, if they occured in-between our weather recording intervals... More about our weather records

Advertising

Lillestrøm weather history for previous 24 hours

 ConditionsComfort  
Time TempWeatherWind HumidityBarometerVisibility
6:00 AM
Tue, Jul 28
55 °FCool.2 mph94%29.54 "HgN/A
4:00 AM55 °FCool.1 mph91%29.54 "HgN/A
3:00 AM56 °FCool.1 mph88%29.54 "HgN/A
2:00 AM55 °FCool.2 mph89%29.54 "HgN/A
1:00 AM56 °FCool.3 mph87%29.54 "HgN/A
12:00 AM57 °FCool.2 mph88%29.54 "HgN/A
10:00 PM
Mon, Jul 27
57 °FCool.2 mph82%29.54 "HgN/A
9:00 PM58 °FCool.3 mph77%29.54 "HgN/A
8:00 PM59 °FOvercast.6 mph73%29.53 "Hg40 mi
7:00 PM59 °FCool.5 mph74%29.50 "HgN/A
6:00 PM62 °FMild.6 mph62%29.50 "HgN/A
5:00 PM65 °FMild.6 mph56%29.50 "HgN/A
4:00 PM65 °FMild.6 mph59%29.47 "HgN/A
3:00 PM67 °FMild.6 mph53%29.47 "HgN/A
2:00 PM68 °FMild.6 mph58%29.47 "HgN/A
1:00 PM69 °FMild.5 mph53%29.47 "HgN/A
12:00 PM68 °FMild.3 mph57%29.47 "HgN/A
11:00 AM66 °FPartly sunny.2 mph56%29.44 "Hg43 mi
10:00 AM63 °FMild.2 mph63%29.44 "HgN/A
9:00 AM62 °FCool.1 mph71%29.44 "HgN/A
8:00 AM59 °FScattered clouds.1 mph76%29.44 "Hg43 mi
7:00 AM53 °FCool.1 mph90%29.44 "HgN/A
Weather by CustomWeather, © 2015

See weather overviewHow to use our weather pages